AT&T T-16

Last updated on Fri Sep 19 2025 00:02:50 GMT+0000 (Coordinated Universal Time)

1 44333U 19034A 25261.15808508 -.00000135 00000+0 00000+0 0 9993 2 44333 0.0276 99.0139 0000062 41.9418 172.4076 1.00269184 22901
UTC large
Height (km)
Speed (km/s)
/
Latitude / Longitude
Inclination (degrees)
Orbital Period (minutes)
Azimuth
Elevation
Range (km)
Doppler Factor

Next 0 passes for location: London (51.5072 / 0.1276)

Sorry there are no passes over London.